LFRDLFRC

Guest
Details From LFRD - Dinard Pleurtuit-St Malo
To LFRC - Cherbourg Maupertus
Flight Number -
Tags generated
Created
Modified
Stats Distance 68 nm / 126 km
Max Altitude 8,400 ft / 2,560 m
Waypoints 3
Social Downloads 0
Likes 0
Share VATSIM

Download

Looking for another format? Having issues loading an existing format? Contact us
Advertisement - Login to hide

Notes

Basic altitude profile: - Ascent Rate: 2500ft/min - Ascent Speed: 250kts - Cruise Altitude: 35000ft - Cruise Speed: 420kts - Descent Rate: 1500ft/min - Descent Speed: 250kts Options: - Use NATs: no - Use PACOTS: no - Use low airways: yes - Use high airways: no

Route

LFRD ORVAL LFRC

ID Type Via Altitude Latitude Longitude Leg Dist Tot Dist Heading (true) Name
O LFRD APT - 0 ft / 0 m 48.58798˚ -2.07992˚ - 0 nm - Dinard Pleurtuit-St Malo
ORVAL FIX - 8,400 ft / 2,560 m 49.03389˚ -1.82528˚ 28 nm 28 nm 21° / 21° -
O LFRC APT - 0 ft / 0 m 49.65015˚ -1.47026˚ 39 nm 68 nm 20° / 21° Cherbourg Maupertus

Altitude Profile

Advertisement - Login to hide

LFRD

Details ICAO LFRD (DNR)
Name Dinard Pleurtuit-St Malo
Region France
Timezone Europe/Paris (UTC+2.0)
Stats Elevation 216 ft / 66 m (AMSL)
Location 48.587983° -2.079916°
Runways 2
Magnetic Variation 0.864° W

METAR

LFRD 261830Z AUTO 33009KT CAVOK 18/13 Q1011 NOSIG

Decode

TAF

TAF LFRD 261700Z 2618/2718 34010KT 9999 SCT040 BECMG 2618/2621 34005KT TEMPO 2703/2712 4000 SHRA BKN030TCU BECMG 2709/2712 30010KT BKN015 TEMPO 2712/2715 BKN010 TEMPO 2712/2718 4000 SHRA

Decode

Departure Runways

ID Width Length Bearing (true) Bearing (mag) Surface Threshold Offset Overrun Length
12 148 ft / 45 m 4,909 ft / 1,496 m 115.13° 115.99° Asphalt 0 ft / 0 m 0 ft / 0 m
17 148 ft / 45 m 7,199 ft / 2,194 m 170.09° 170.95° Asphalt 0 ft / 0 m 0 ft / 0 m
30 148 ft / 45 m 4,909 ft / 1,496 m 295.14° 296.00° Asphalt 669 ft / 204 m 0 ft / 0 m
35 148 ft / 45 m 7,199 ft / 2,194 m 350.10° 350.96° Asphalt 0 ft / 0 m 0 ft / 0 m

LFRC

Details ICAO LFRC (CER)
Name Cherbourg Maupertus
Region France
Timezone Europe/Paris (UTC+2.0)
Stats Elevation 459 ft / 140 m (AMSL)
Location 49.650151° -1.470264°
Runways 1
Magnetic Variation 0.773° W

METAR

LFRC 261830Z AUTO 04006KT CAVOK 17/13 Q1012

Decode

TAF

Not found

Destination Runways

ID Width Length Bearing (true) Bearing (mag) Surface Threshold Offset Overrun Length
10 148 ft / 45 m 7,985 ft / 2,434 m 100.78° 101.55° Asphalt 0 ft / 0 m 0 ft / 0 m
28 148 ft / 45 m 7,985 ft / 2,434 m 280.80° 281.57° Asphalt 0 ft / 0 m 0 ft / 0 m

Approach Navaids

Runway Type Ident Frequency Range Bearing (true) Bearing (mag) Slope Elevation
28 Localiser MP 110.55 MHz 18 nm / 33 km 280.78° 281.55° - 459 ft / 140 m (AMSL)
28 Glidescope MP 110.55 MHz 10 nm / 19 km 280.79° 281.56° 3.00° 482 ft / 147 m (AMSL)
28 DME MP 110.55 MHz 18 nm / 33 km - - - 459 ft / 140 m (AMSL)

Popular Alternatives